Theta_e
357 358 358 357 355 355 347 343 322 330 326 317 321 322 320 332 331 330 329 332 330 336 339 339 339 336 333 330 334 336 338 333 332 326 322 343 353 355 357 357 358 360 360 361 360 362 364 363 362 364 364 365 366 368 369 368 367 368 368 368 368 367 367 367 367 367 367 367 367 366 366 366 365 364 364 364 363 363 363 363 363 363 363 362 362 362 362 362 362 362 362 362 362 361 361 361 361
356 358 359 359 353 350 336 344 329 324 324 320 318 326 324 330 332 328 329 332 334 336 340 340 339 339 337 337 337 337 335 338 339 339 345 351 354 354 357 358 358 357 359 361 362 362 360 364 363 364 365 365 366 367 368 367 367 368 368 367 367 367 367 367 367 367 367 367 367 366 366 365 365 364 364 364 363 363 363 363 363 363 363 363 363 362 361 361 361 361 361 361 361 361 360 360 362
357 359 357 359 353 347 345 340 320 321 315 311 318 324 331 328 328 331 333 335 338 340 340 339 339 338 336 335 331 335 327 342 341 342 344 352 347 352 356 359 360 360 360 361 362 362 364 362 364 365 365 366 366 366 367 367 367 367 367 366 367 366 367 367 367 367 367 367 366 366 366 366 365 364 364 364 363 362 362 363 362 362 363 364 364 363 363 361 361 361 361 362 361 361 360 361 361
359 360 356 353 341 347 334 333 327 321 313 319 319 326 328 328 329 332 336 338 339 339 337 335 335 341 336 329 334 339 336 338 343 342 340 345 348 354 356 357 362 360 361 361 362 362 364 364 363 365 365 365 365 367 367 367 367 367 366 367 366 366 366 366 367 367 367 366 366 366 366 365 365 364 364 363 363 362 363 362 363 363 363 363 363 362 362 362 361 361 361 361 361 361 361 362 361
358 359 359 349 343 333 333 329 326 323 317 321 317 326 329 331 332 334 336 340 339 340 338 337 336 341 343 340 339 333 335 341 343 346 343 348 354 356 358 359 359 359 359 361 361 362 364 363 364 365 365 366 366 366 367 367 367 367 366 366 366 366 366 366 366 367 366 366 366 366 365 365 364 364 363 363 362 362 363 362 362 363 362 362 362 363 363 362 361 361 361 361 361 361 361 362 362
358 357 358 354 339 347 337 326 326 322 323 328 324 325 330 334 332 335 337 339 341 341 340 338 335 334 336 338 343 338 342 336 343 345 347 349 354 356 358 358 357 357 359 361 362 363 364 363 365 366 365 365 365 366 367 367 367 366 366 366 367 367 366 366 367 367 366 366 366 365 365 365 364 363 363 362 362 363 362 363 362 363 362 362 361 362 362 361 362 361 362 361 361 362 360 361 359
352 351 349 350 345 343 327 324 322 323 324 329 327 328 331 334 335 336 336 337 340 341 342 338 340 338 334 339 342 346 350 347 345 346 351 352 354 356 357 356 356 356 360 361 362 363 363 363 363 365 365 365 365 366 367 367 367 366 366 366 367 367 368 368 367 366 366 366 365 365 365 365 364 363 363 362 362 362 362 362 362 362 362 362 362 361 362 362 361 362 361 361 361 361 360 360 359
357 347 344 335 330 331 326 323 323 327 324 331 330 330 333 333 336 336 334 334 334 335 338 341 339 334 336 344 336 346 348 348 349 351 353 354 354 356 357 356 355 356 358 362 364 363 366 364 364 363 364 365 366 366 367 367 366 366 366 366 367 368 368 367 367 366 366 365 365 365 365 365 364 364 363 362 362 362 362 362 362 362 363 363 363 364 363 362 362 361 361 361 361 361 360 361 359
352 346 347 336 326 329 325 322 322 326 327 330 330 334 335 336 337 335 334 336 335 339 338 339 339 333 334 338 338 345 347 350 351 354 353 354 353 353 355 356 355 355 358 359 361 362 364 365 363 363 364 365 366 367 367 367 367 366 367 367 368 368 367 367 366 366 366 365 365 365 366 365 364 363 363 363 362 362 362 362 362 362 362 363 363 362 362 363 361 361 361 361 361 361 360 360 360
346 342 333 332 329 323 322 321 323 324 327 330 332 331 334 335 336 337 334 333 335 338 339 342 340 334 338 334 337 342 343 350 350 350 352 353 353 354 354 356 356 356 357 358 361 360 363 366 363 363 364 365 366 367 366 367 367 367 367 367 367 367 366 367 366 366 366 365 366 365 365 364 363 363 363 362 361 361 362 362 362 362 362 362 362 362 362 361 362 361 361 362 361 362 361 360 359
335 341 340 329 326 320 316 316 321 324 326 330 331 334 335 337 336 335 335 335 337 337 338 341 337 337 337 335 341 349 348 348 348 346 349 353 353 354 353 357 357 357 356 357 360 362 364 365 364 363 364 366 366 366 366 366 367 367 367 367 367 367 366 366 366 366 366 366 365 365 364 364 364 362 362 361 361 362 362 363 363 363 363 363 363 362 362 362 362 362 362 362 361 361 361 361 360
333 332 335 326 324 322 318 318 319 322 326 327 329 333 337 336 336 333 333 331 335 337 336 340 336 341 335 334 338 344 347 347 347 349 350 352 352 354 355 356 357 357 357 357 360 363 364 366 367 364 364 365 365 366 366 366 366 367 368 368 367 367 366 366 366 366 366 366 365 365 364 364 364 362 362 362 361 361 362 362 362 362 363 363 362 362 362 362 362 362 361 362 362 361 361 360 361
335 335 330 325 326 325 322 320 319 321 322 324 328 333 337 335 334 334 334 334 334 334 336 340 343 341 332 333 340 344 342 346 348 349 351 351 352 355 356 356 357 357 357 359 361 362 365 366 365 366 364 365 365 366 366 366 367 367 367 367 367 366 366 366 366 366 366 365 365 365 365 365 363 363 362 362 362 361 361 362 362 362 362 362 363 362 362 362 362 362 362 361 361 361 361 361 360
335 336 332 325 330 325 323 320 321 319 319 324 330 334 336 334 335 337 335 332 332 334 340 344 342 341 336 337 338 339 341 348 349 350 351 352 353 354 355 356 356 357 358 359 362 363 365 365 364 363 364 365 366 367 366 366 367 367 367 367 367 366 367 367 367 367 366 366 365 365 365 364 364 363 363 362 361 360 360 361 362 362 363 362 363 362 362 363 361 362 361 362 362 362 362 362 362
336 340 332 329 325 324 324 319 318 319 318 325 330 333 334 337 337 337 335 332 334 343 343 346 343 339 330 333 333 337 342 348 350 351 350 351 352 354 355 356 356 357 357 357 361 362 362 364 363 364 365 363 364 364 366 368 367 367 367 367 366 366 367 367 367 366 366 366 365 365 365 364 364 364 363 362 362 362 361 361 361 361 362 362 362 362 362 362 361 361 362 362 363 362 362 362 362
341 338 333 327 325 323 323 322 321 319 319 326 331 335 333 336 339 335 337 340 339 343 342 336 343 335 338 336 339 342 344 348 350 350 350 350 351 351 354 355 356 356 357 357 359 361 361 362 364 364 362 363 364 362 364 367 368 367 367 366 366 366 366 366 366 366 365 366 365 365 365 366 365 365 363 364 363 362 361 363 360 362 362 362 362 363 361 362 362 363 363 363 363 362 362 362 362
342 338 328 326 322 320 322 322 321 316 324 329 333 334 329 332 339 340 344 343 336 336 339 342 339 343 339 341 344 346 347 349 350 349 348 349 349 348 350 352 354 355 354 357 357 361 362 360 364 364 363 362 362 361 362 364 366 367 367 366 366 366 366 366 366 366 366 366 366 366 365 365 366 366 367 366 363 365 363 361 361 362 362 362 362 362 362 362 362 363 363 362 362 362 363 363 363
338 328 326 323 326 323 325 324 325 326 325 327 330 334 331 330 336 340 342 338 337 337 338 340 343 342 344 347 347 347 347 347 348 346 345 346 347 345 346 349 351 351 352 354 358 358 361 364 366 366 363 363 363 362 361 362 366 366 365 367 368 368 367 366 368 366 364 367 363 365 366 365 364 366 367 361 366 364 364 362 362 362 362 362 362 360 362 363 363 363 362 363 361 360 360 368 366
332 329 328 325 326 328 330 330 331 329 326 328 329 334 332 331 335 340 333 334 336 334 337 339 338 343 346 346 346 345 345 346 345 345 345 344 344 344 344 345 347 350 351 353 355 358 361 363 361 361 364 363 362 362 361 362 364 364 363 364 364 365 366 368 366 366 365 366 366 364 364 365 364 365 366 365 367 360 364 363 363 363 364 364 364 363 363 363 362 364 363 362 361 362 368 365 364
336 331 327 327 330 331 333 333 332 332 330 327 328 332 333 335 336 342 331 333 335 332 334 336 338 339 342 344 345 345 344 344 345 344 343 344 345 344 344 344 345 347 351 353 354 358 359 360 359 360 363 363 362 361 360 361 362 362 361 362 364 364 365 366 366 366 366 366 365 366 363 365 364 365 361 359 362 366 363 364 361 363 364 363 358 365 364 364 362 362 362 361 357 362 363 362 359
336 331 327 331 332 329 331 334 334 332 332 330 330 333 332 337 338 337 332 331 332 333 337 336 337 340 342 343 343 344 343 342 342 342 343 344 344 344 344 345 345 347 349 354 355 356 358 359 359 360 363 363 362 360 359 359 362 359 360 361 363 361 363 364 365 366 365 366 365 364 363 364 363 364 362 362 364 366 365 366 365 367 368 368 363 368 363 363 363 364 362 360 362 365 360 361 362
337 332 333 334 332 329 331 335 335 333 333 332 331 330 331 339 338 336 334 327 325 330 336 340 341 344 343 342 343 344 343 342 342 342 342 342 342 344 345 346 347 347 349 351 353 356 358 359 359 360 361 362 361 360 359 360 362 359 360 362 362 364 363 364 366 366 365 365 363 363 364 363 363 363 362 362 363 365 363 363 365 366 366 367 367 363 362 364 362 359 361 363 362 362 361 360 360
326 333 335 336 337 333 336 336 336 336 332 330 329 332 334 334 334 337 335 330 332 337 339 342 343 346 346 345 344 343 343 343 342 343 343 343 344 344 344 345 345 346 348 350 353 356 358 359 361 361 359 361 362 362 360 361 360 362 363 362 362 361 363 364 362 363 364 365 364 366 359 359 359 360 359 359 361 364 363 362 363 364 365 363 365 361 361 361 362 360 359 361 362 358 359 361 361
331 326 334 335 337 335 338 336 337 335 332 329 332 334 331 332 328 336 334 337 336 342 340 343 346 347 347 344 344 343 343 343 343 344 345 345 345 345 346 346 347 348 349 350 351 354 357 358 361 361 361 362 363 364 363 360 361 362 362 361 361 360 362 363 361 362 365 363 365 366 364 361 358 358 360 359 360 364 364 365 365 362 360 361 364 363 359 360 361 360 363 361 361 362 357 361 359
330 327 331 334 336 337 337 335 334 334 333 335 333 329 329 331 330 333 333 337 337 342 344 345 348 347 346 344 343 344 344 344 344 345 346 347 348 348 348 349 349 349 348 349 351 352 355 358 359 360 361 362 362 362 362 360 361 362 361 361 360 362 363 363 362 365 364 363 364 366 364 360 359 361 361 360 362 363 365 365 362 361 362 362 364 360 361 360 358 358 361 362 363 362 360 359 359
332 330 333 333 333 334 335 334 333 332 332 333 329 326 328 331 334 330 333 337 340 343 345 346 347 346 344 344 343 344 344 344 345 345 345 348 348 347 348 349 350 349 350 350 350 352 354 356 358 358 360 362 362 360 361 360 361 359 360 363 363 363 363 363 365 362 362 363 364 365 363 363 361 359 361 364 361 364 364 366 364 362 363 363 361 362 361 360 358 360 363 364 362 362 361 360 358
334 333 332 331 332 332 333 331 331 332 331 332 327 325 325 329 330 327 335 337 341 343 345 347 345 344 344 343 343 344 344 344 345 346 347 348 348 348 349 350 350 350 352 351 351 352 354 354 356 359 360 363 362 359 360 361 361 360 362 363 364 362 362 364 364 363 362 363 364 366 366 367 366 363 362 364 364 363 365 366 363 364 362 360 364 362 364 363 362 361 365 362 363 362 358 360 359
330 330 330 329 330 331 330 330 329 329 326 329 327 324 325 326 330 327 331 338 343 341 344 345 345 345 344 344 344 346 346 346 347 347 345 347 347 347 349 349 350 350 351 351 353 355 353 354 354 358 360 361 361 359 361 360 361 360 362 362 361 363 364 362 363 363 364 363 366 365 365 366 365 365 366 367 366 364 364 363 363 364 364 362 365 363 364 366 365 365 366 366 366 365 360 359 360
330 330 322 323 324 321 324 323 324 325 323 327 326 322 320 323 326 332 333 341 343 341 342 344 344 344 345 345 344 346 346 347 347 347 347 349 350 349 349 350 350 350 353 354 354 355 353 354 355 357 358 361 362 359 358 359 360 360 360 361 362 362 363 363 361 361 363 363 365 366 366 367 368 366 366 366 365 364 364 365 364 365 366 365 366 368 367 368 366 363 366 366 365 362 361 358 358
328 326 322 319 317 316 321 324 324 322 322 325 323 311 316 322 329 331 334 341 341 339 341 342 343 344 345 345 344 345 346 347 346 347 349 350 350 350 350 351 352 351 353 355 355 353 355 355 354 355 357 359 361 359 359 358 359 360 361 360 361 362 361 360 359 361 361 363 364 365 365 367 367 366 368 366 364 364 366 366 365 365 367 368 368 369 365 364 362 363 360 360 359 363 360 361 353
318 320 320 313 312 313 321 322 323 320 324 321 322 313 315 321 330 331 334 340 339 337 340 341 342 343 344 344 344 345 345 347 346 348 349 350 350 351 351 351 352 353 353 353 353 355 356 356 356 354 357 358 360 359 359 359 359 359 359 360 361 362 360 357 356 360 360 361 362 364 366 367 368 367 367 366 364 364 363 364 365 364 368 370 366 367 365 364 364 361 357 357 359 358 359 359 355
317 312 310 314 311 314 318 320 319 318 320 322 321 314 315 319 325 329 335 338 338 336 338 341 341 343 344 344 344 344 344 346 347 347 349 349 350 350 351 351 352 352 353 354 354 355 354 357 357 354 356 356 358 360 360 360 359 359 358 359 360 362 357 359 357 358 360 360 362 364 368 367 368 368 367 367 363 365 362 364 365 369 370 369 368 366 367 363 363 361 360 358 357 358 359 356 355
315 312 310 310 312 313 315 319 321 322 322 322 320 314 318 319 323 329 335 335 335 334 336 340 341 343 343 344 344 344 344 345 346 346 348 349 351 352 352 353 352 353 355 356 356 357 357 357 358 355 354 356 357 358 360 361 360 360 360 358 358 359 357 357 358 360 361 361 362 358 365 367 367 367 368 368 365 363 363 366 366 369 371 367 367 367 364 362 362 358 362 362 362 358 357 356 351
308 312 309 313 312 314 312 316 318 319 319 317 320 317 318 320 323 328 333 333 334 332 334 339 341 342 344 344 344 344 344 344 344 346 347 350 351 352 352 354 354 354 355 357 359 358 357 358 358 357 357 356 357 358 359 359 361 361 360 358 359 358 358 359 358 360 361 359 360 359 364 367 367 368 368 367 365 363 364 365 367 369 369 368 367 366 364 363 363 361 360 362 360 360 357 355 350
306 307 307 309 313 315 314 314 316 318 318 317 318 318 319 320 322 327 331 332 332 332 332 337 340 342 344 344 344 344 344 344 345 347 348 350 351 352 352 354 354 354 355 357 359 361 360 359 359 359 359 358 358 358 361 360 360 362 360 359 358 359 361 359 359 359 360 359 357 362 367 368 367 368 367 367 366 362 361 365 368 369 370 368 367 365 364 364 362 362 361 361 364 362 360 358 351
308 309 308 310 309 311 312 317 318 317 315 315 317 315 317 319 320 324 330 331 331 331 333 335 339 342 343 344 344 344 345 345 348 349 350 351 351 352 352 353 354 355 355 357 359 361 361 361 361 361 361 360 360 360 358 356 357 356 354 356 354 357 358 358 361 359 360 356 358 362 367 368 366 367 368 368 367 364 362 365 368 369 369 368 367 364 361 360 362 364 364 363 363 362 362 360 352
309 310 309 309 310 312 316 317 317 317 314 315 316 317 318 318 318 320 327 330 330 330 331 334 339 341 342 343 342 343 346 346 349 350 350 351 351 353 354 354 355 356 356 357 357 359 360 359 360 359 360 363 360 357 356 354 352 353 355 352 352 354 356 359 359 361 360 357 361 364 368 366 367 368 367 367 366 366 368 368 369 371 370 368 366 365 364 364 366 365 364 365 361 360 357 359 351
308 308 307 308 310 309 315 316 318 318 314 315 318 317 316 318 320 321 323 327 327 328 330 333 337 340 342 343 342 344 346 348 349 350 350 351 352 353 354 353 354 353 356 357 357 358 360 359 360 360 361 362 361 359 357 356 357 355 354 354 353 355 356 356 358 362 361 359 364 367 368 367 367 368 367 367 367 372 369 368 370 370 370 367 368 369 367 367 368 366 364 360 362 358 351 349 350
308 307 308 307 309 311 314 315 316 317 315 313 316 315 316 319 319 321 320 324 330 330 330 332 337 339 341 342 343 344 346 347 348 349 350 351 351 353 353 354 355 355 356 356 359 359 360 359 360 362 361 361 361 360 360 359 360 361 359 358 356 356 361 362 360 361 363 360 364 369 369 367 367 367 368 367 370 372 370 369 370 369 370 368 368 369 369 370 369 367 365 359 354 355 351 353 352
307 306 305 305 310 309 307 313 316 317 315 313 316 314 315 318 320 320 320 322 330 330 331 332 336 339 340 341 344 344 345 346 346 348 348 349 351 352 354 355 355 355 356 356 357 358 359 360 361 362 362 362 361 363 362 363 364 365 365 363 362 360 360 363 364 363 364 363 361 367 369 367 368 366 366 367 370 371 372 370 370 368 371 371 369 368 368 367 368 367 364 364 356 348 347 348 351
306 306 306 306 307 309 310 312 313 314 314 314 313 311 312 315 315 317 321 322 326 329 330 333 336 339 341 342 344 346 345 347 347 348 349 349 350 351 353 356 356 355 354 355 356 357 358 360 362 363 362 363 364 364 364 365 365 365 364 364 365 363 363 361 362 360 363 364 361 363 365 367 367 366 366 367 369 370 371 371 370 370 369 371 370 369 368 365 366 367 366 359 356 349 344 345 351
305 307 306 307 308 308 309 312 311 310 310 314 312 305 307 315 316 316 319 322 324 328 331 332 335 337 340 341 342 345 346 349 349 348 349 349 351 352 354 355 354 355 356 357 358 359 360 360 363 364 364 364 364 366 367 365 364 362 361 359 356 356 356 356 355 357 358 359 356 358 364 366 365 366 367 368 369 369 370 371 372 371 369 369 370 367 368 367 364 364 361 358 355 356 352 345 341
303 304 309 308 308 308 308 308 309 304 303 311 315 305 304 314 314 317 320 324 324 329 331 333 336 338 339 341 342 344 344 346 349 349 350 349 351 351 353 355 355 355 356 357 358 359 360 361 363 364 364 365 366 367 366 365 364 363 362 359 357 356 355 358 361 361 359 360 360 358 361 365 367 365 365 367 368 368 369 372 372 372 369 370 371 369 366 364 363 364 361 359 356 356 354 347 345
302 309 309 309 307 306 307 308 308 306 311 312 313 311 305 305 312 318 321 321 323 327 330 332 333 338 338 341 341 344 344 346 347 349 350 351 351 352 352 354 355 354 357 358 357 358 360 363 364 364 365 365 367 367 365 366 364 364 363 361 358 356 356 359 362 362 363 364 361 359 361 364 368 368 365 367 368 368 368 369 371 370 367 368 369 369 366 365 363 363 363 362 360 358 354 348 345
305 309 310 309 309 307 307 307 306 307 307 304 309 312 306 305 312 318 318 315 319 322 325 331 332 336 339 340 340 343 344 346 347 348 349 350 351 352 353 354 355 356 356 357 358 360 362 363 365 366 366 366 367 368 366 365 365 364 363 361 358 359 360 359 362 364 363 365 364 363 363 363 368 370 366 365 368 368 367 368 370 369 367 366 366 364 363 363 364 362 363 361 359 358 355 353 349
309 310 311 311 310 309 308 305 305 305 304 300 305 309 304 305 311 312 316 315 315 318 321 325 333 334 337 338 340 342 345 347 347 348 350 351 352 353 354 355 356 355 357 360 359 361 362 364 365 366 366 366 366 367 366 367 366 364 363 362 361 359 360 360 362 363 364 366 364 365 364 364 363 367 368 367 369 368 368 368 367 366 366 363 363 363 363 363 364 364 363 362 360 358 356 353 350
313 310 309 308 308 307 308 306 306 304 298 301 305 308 307 300 307 310 311 313 316 317 319 322 327 334 337 339 340 340 342 345 346 348 349 351 353 354 354 354 356 356 357 358 359 360 361 363 365 365 366 366 367 366 365 365 365 364 364 364 363 362 362 361 360 363 363 365 364 363 364 365 364 363 363 367 368 368 368 368 365 364 366 365 365 365 364 362 362 363 363 363 362 359 355 355 352
311 308 306 305 304 306 305 304 306 298 296 303 307 307 307 298 303 310 315 318 319 319 318 320 323 330 336 339 338 339 342 345 346 347 348 350 353 353 354 354 355 356 357 357 358 359 361 363 365 365 366 366 366 364 364 362 361 363 364 364 365 365 364 361 361 361 363 364 364 361 363 365 365 363 365 361 365 364 366 366 368 366 366 365 364 366 365 364 362 362 362 362 362 360 357 356 353
309 307 306 299 298 301 296 300 295 296 296 303 306 306 303 302 307 312 314 315 317 321 320 320 322 326 334 337 339 339 341 344 346 347 348 348 350 351 352 354 356 357 356 357 357 358 360 363 364 364 364 366 365 363 362 363 362 362 362 363 365 366 366 364 363 362 364 363 363 362 362 363 365 363 363 362 364 367 366 368 369 366 366 367 368 367 366 367 366 361 361 362 360 358 356 357 352
306 304 302 299 296 295 291 296 299 299 302 305 304 306 301 306 309 314 312 315 318 319 322 322 322 322 329 338 339 337 340 343 345 346 347 348 350 351 353 353 355 356 357 356 357 359 360 361 364 364 365 366 366 363 362 362 362 363 364 364 365 366 366 366 364 362 363 364 364 363 362 361 363 363 362 364 364 366 366 369 371 370 371 371 370 369 368 368 368 364 364 362 359 359 359 358 353
306 308 305 302 301 298 294 296 294 296 299 303 305 301 299 300 305 313 314 316 318 319 319 322 322 323 327 337 339 338 339 343 345 347 346 347 350 352 352 353 355 355 356 356 357 358 361 361 363 364 365 365 365 364 364 362 361 363 364 364 364 365 366 365 365 364 364 364 363 364 364 362 361 364 362 367 368 367 369 371 371 370 371 371 371 369 367 367 368 367 364 363 360 357 359 357 353
308 308 308 303 301 307 299 302 300 299 299 299 302 300 305 305 313 316 318 317 317 317 317 318 320 321 323 330 334 334 336 339 343 346 347 349 351 353 353 354 354 355 358 357 358 359 359 361 363 365 365 366 366 366 364 363 363 363 365 365 363 365 366 367 365 366 365 365 366 365 365 365 364 364 367 368 369 368 369 371 372 370 371 370 370 369 368 365 366 365 364 362 361 358 358 357 353
306 306 301 304 311 307 302 303 303 303 301 299 306 303 305 310 311 314 314 315 316 317 317 318 320 321 324 326 332 334 335 338 342 344 347 350 350 352 353 354 354 355 356 356 358 359 361 361 362 364 365 367 366 366 365 363 363 363 364 364 364 364 364 365 364 365 363 366 367 366 364 365 366 366 366 368 370 371 371 371 370 368 369 369 369 367 367 367 367 366 363 362 360 358 360 359 353
309 302 305 311 312 310 304 297 301 298 294 298 302 300 303 303 300 312 311 311 312 315 316 317 320 322 324 327 332 335 336 338 342 346 349 350 350 351 352 353 354 355 356 357 360 361 361 361 362 363 364 364 365 366 363 363 364 364 365 365 366 366 364 365 366 366 366 365 366 367 366 365 365 364 365 367 369 370 371 371 369 369 368 369 367 366 367 367 367 365 365 364 362 363 359 359 356
309 306 313 304 299 298 304 302 295 295 294 296 300 302 302 305 306 311 310 310 311 314 316 316 316 319 321 326 330 334 337 338 340 343 346 348 349 350 352 352 353 355 357 358 359 360 360 361 361 361 363 363 364 363 364 365 365 364 365 365 365 364 365 366 367 368 368 366 364 365 365 364 365 366 366 367 369 369 369 369 370 369 368 368 369 367 368 367 367 365 365 362 362 363 358 357 358
312 313 309 311 308 303 300 302 303 303 297 298 298 301 300 308 308 310 311 314 314 313 314 315 316 318 320 324 327 330 335 337 339 342 344 346 348 349 350 351 351 353 355 356 357 357 357 359 360 361 362 364 365 364 365 364 364 364 363 365 365 367 368 366 368 368 366 365 366 365 365 363 364 365 365 367 367 366 367 368 367 365 365 367 368 366 366 366 365 366 364 362 361 361 358 358 356
304 305 305 306 306 310 308 307 302 300 299 299 299 298 304 311 313 311 312 315 316 315 315 317 317 318 319 322 324 330 335 337 338 341 343 345 347 348 349 352 351 352 355 356 355 356 356 356 358 359 360 360 361 362 363 364 364 364 366 366 365 366 366 367 369 368 367 367 367 366 365 366 366 365 366 365 366 367 367 367 366 366 364 366 368 366 366 366 365 365 365 365 364 361 359 358 357
306 305 304 306 303 302 299 299 307 303 300 296 298 298 307 308 313 314 314 315 315 316 317 318 320 319 322 322 324 329 333 339 340 340 341 343 347 348 348 350 352 350 351 352 353 354 354 355 356 357 357 358 358 360 362 364 364 364 364 365 366 367 368 368 366 367 366 366 366 366 367 367 365 366 367 365 367 367 367 367 366 367 367 367 368 369 365 365 366 366 367 365 363 361 359 359 357
Wind_Speed
12 10 10 8 6 4 5 5 3 4 4 5 6 4 5 4 4 2 5 4 5 4 4 6 9 10 3 4 7 9 10 7 3 3 4 8 14 14 12 14 14 13 14 13 13 13 14 11 15 16 17 16 16 18 17 17 17 17 17 17 16 16 15 14 14 14 14 14 14 13 13 13 13 12 11 11 11 11 11 11 11 11 11 11 11 10 10 11 11 11 11 10 10 9 9 9 10
10 9 9 9 7 7 3 3 4 5 3 5 6 3 7 5 4 5 6 3 7 6 6 8 9 6 3 8 8 9 12 11 9 10 11 14 16 13 14 14 14 14 13 13 13 13 13 13 13 16 17 17 16 16 16 17 17 16 17 17 16 16 15 14 14 14 14 14 13 13 13 12 12 12 11 11 11 11 11 11 11 11 11 10 10 10 10 10 10 10 9 10 9 9 9 9 10
10 10 8 7 7 7 1 3 4 1 4 5 6 9 3 5 8 7 7 7 8 9 9 9 9 6 7 6 7 6 5 7 13 14 12 16 16 12 15 14 13 12 13 11 12 12 11 13 13 16 17 16 15 17 16 16 16 16 17 16 16 15 14 14 14 14 14 13 12 12 12 11 11 11 11 11 10 10 11 11 10 10 10 10 10 10 9 9 9 9 9 9 9 9 9 9 9
10 8 7 7 3 4 4 4 7 5 4 5 9 7 8 7 8 8 8 9 9 9 9 10 7 5 3 7 7 9 9 7 10 15 12 13 10 15 15 15 14 11 11 10 11 12 11 14 13 17 17 16 16 17 17 16 17 17 16 16 15 14 14 14 14 14 13 12 12 11 11 11 10 10 10 10 10 10 10 10 10 10 10 9 9 9 8 8 8 8 8 9 9 10 10 9 9
8 7 5 5 3 3 5 4 6 2 1 7 8 7 6 7 8 8 9 9 9 9 10 8 7 6 9 8 2 3 6 12 13 12 12 11 16 15 15 15 13 12 11 11 12 12 13 17 14 16 16 17 17 17 17 17 17 17 16 15 14 14 14 13 13 13 12 12 11 11 10 10 10 10 10 10 10 10 10 10 10 9 8 8 8 8 8 8 9 8 8 9 9 9 10 10 9
7 5 4 3 2 4 4 5 5 2 8 3 6 7 6 7 8 9 10 9 9 8 8 7 5 9 5 7 5 7 7 5 11 10 13 12 18 17 16 14 13 13 12 11 11 11 14 17 16 16 17 17 17 17 17 17 17 16 15 14 14 14 13 13 13 12 12 11 11 10 10 10 10 10 9 9 9 10 10 10 10 9 8 8 8 8 8 8 8 9 8 8 9 9 10 10 10
6 5 5 4 5 4 5 4 3 3 9 3 6 6 6 7 8 9 10 10 7 7 6 6 8 10 8 7 11 9 5 9 9 12 11 17 18 17 16 14 14 14 13 11 11 12 17 17 17 17 17 17 17 17 16 17 17 16 14 13 13 13 13 13 12 12 12 11 10 10 10 10 9 9 9 9 9 9 9 10 10 10 9 9 9 8 9 9 9 9 8 8 8 9 10 10 10
4 5 3 5 3 5 6 1 2 2 7 4 4 5 6 6 6 7 9 7 9 7 7 7 9 3 10 6 5 6 6 6 11 14 16 17 18 17 16 14 14 14 13 11 11 12 15 14 16 17 17 17 17 16 16 16 16 15 14 13 13 13 13 12 12 11 11 11 10 9 9 9 9 9 8 8 8 9 9 9 10 10 10 10 9 9 9 9 9 9 9 9 8 8 9 9 10
5 7 2 4 6 4 5 1 5 2 4 2 4 5 4 6 4 6 6 4 9 6 9 10 8 5 7 7 7 7 6 8 15 15 18 18 19 18 12 14 14 13 14 12 12 14 14 12 15 17 17 17 16 16 16 16 15 14 13 13 13 12 12 12 11 11 11 10 10 9 9 9 9 8 8 8 8 8 9 9 10 10 10 10 10 9 9 9 9 10 9 9 8 8 9 9 9
5 4 3 5 4 4 2 4 2 5 4 4 2 5 5 5 6 4 6 7 6 8 9 8 6 3 10 9 8 7 6 11 15 17 17 19 18 16 15 15 15 15 14 13 13 14 12 14 14 16 16 16 15 15 15 15 14 14 13 13 13 13 12 11 11 11 10 10 9 9 9 9 8 8 8 8 8 8 8 9 9 9 9 9 9 9 9 9 10 10 10 10 9 9 9 9 9
5 5 4 6 5 2 2 5 5 7 5 4 3 4 5 5 5 5 3 7 7 8 9 7 7 9 8 9 6 6 11 13 16 18 19 18 17 15 15 14 14 15 14 15 14 13 13 14 15 15 15 15 15 15 15 14 14 13 13 13 13 12 12 11 11 10 10 10 9 9 9 8 8 7 7 7 7 7 8 8 8 8 9 9 8 8 9 9 10 10 10 10 10 9 9 9 9
6 5 4 6 4 4 4 3 3 6 5 3 6 5 4 5 4 5 6 7 8 8 8 10 7 9 8 8 6 8 13 15 17 18 19 19 15 15 14 12 14 14 15 15 14 13 14 13 12 14 15 14 14 14 14 14 14 13 13 13 12 12 12 11 11 10 10 9 9 9 8 8 7 7 7 6 7 7 8 8 8 8 8 8 8 8 9 9 9 9 9 10 10 9 9 9 9
6 4 5 6 3 2 3 3 6 2 2 5 7 6 5 6 4 4 5 5 6 7 9 7 11 7 7 7 8 11 15 17 17 18 19 17 15 14 13 13 14 14 14 15 14 14 14 13 12 13 14 15 14 14 14 14 13 13 13 13 12 12 12 11 10 10 9 9 8 8 8 7 7 7 6 6 6 7 8 8 7 8 7 8 8 8 8 8 9 9 9 10 9 9 9 9 9
6 4 5 6 3 4 3 2 1 1 7 8 5 8 6 5 4 4 5 7 7 4 8 7 8 5 11 12 10 12 14 18 18 19 16 17 15 14 14 13 14 14 14 15 13 14 14 13 12 13 14 13 12 13 14 14 13 13 13 12 12 12 11 11 10 9 9 8 8 8 7 7 7 6 6 6 6 7 6 7 7 7 7 7 7 7 8 8 8 8 9 9 9 9 9 8 8
7 2 5 6 6 5 2 2 5 1 9 2 8 7 7 3 4 4 4 6 7 8 9 7 5 9 8 10 12 14 17 20 19 18 17 16 17 14 14 13 13 13 14 15 13 14 14 12 12 13 14 13 13 10 10 12 13 12 12 12 11 11 11 10 10 9 8 8 7 7 7 7 6 6 6 5 6 6 5 6 6 7 6 6 6 6 7 7 8 8 8 9 8 8 8 7 7
6 4 4 5 4 5 7 2 3 3 7 2 7 6 6 6 4 6 4 2 8 8 9 7 6 2 8 7 14 18 21 21 19 17 17 18 16 15 13 13 12 12 12 14 11 11 12 11 11 12 13 13 12 11 11 11 12 12 12 11 11 11 10 10 9 9 8 8 7 7 7 7 7 6 6 6 6 6 6 6 5 6 6 6 6 6 6 7 7 8 8 7 8 7 6 6 6
6 4 6 5 5 5 5 2 1 4 5 5 4 7 5 6 7 4 6 6 9 10 6 6 7 3 6 4 18 21 22 21 20 20 18 15 13 12 12 11 11 11 9 12 13 10 12 12 13 11 13 14 13 12 11 11 11 12 11 11 11 10 10 9 9 9 8 8 7 7 6 5 5 5 5 5 6 5 6 5 5 6 6 6 6 6 6 7 7 7 6 6 6 4 3 6 7
6 6 5 5 3 3 5 5 6 2 4 4 3 6 5 6 8 7 7 7 6 10 6 8 6 3 5 14 20 21 22 22 21 21 19 16 13 14 13 12 12 12 11 11 13 15 13 14 11 11 12 14 12 10 9 9 10 11 10 10 9 9 10 9 8 7 8 7 7 6 5 4 4 3 4 3 4 5 7 4 4 5 6 6 6 7 7 6 6 7 6 5 3 1 4 4 6
8 5 6 4 2 6 2 5 5 6 7 7 2 6 7 5 8 8 7 9 10 11 9 10 9 9 12 17 22 22 23 22 22 21 22 21 17 18 15 14 13 13 12 11 12 14 12 11 12 11 13 13 13 11 9 9 11 9 10 9 8 9 9 9 7 7 6 6 6 5 4 3 3 3 2 3 2 4 5 5 4 4 3 4 4 6 6 5 5 5 5 4 1 5 5 3 2
9 7 5 5 1 1 2 3 5 6 7 8 2 5 7 4 7 8 6 8 9 10 9 11 11 13 16 19 22 22 22 23 22 22 22 20 19 19 18 17 16 15 13 12 12 12 12 11 14 14 13 13 12 10 9 9 9 9 8 8 7 8 8 8 7 7 6 6 5 4 4 3 3 3 5 4 4 4 6 7 4 5 5 5 1 5 6 7 3 4 4 4 1 3 3 2 3
7 9 7 1 1 6 3 1 3 6 9 6 3 3 6 4 5 6 5 5 7 7 10 12 14 16 19 20 22 22 22 22 23 22 22 21 20 17 17 16 16 15 14 12 11 13 14 13 13 12 12 12 12 10 10 9 9 8 8 8 7 7 7 7 7 7 6 6 6 5 4 4 4 3 4 4 2 2 2 3 5 4 3 3 4 2 3 6 7 5 1 4 3 0 1 2 2
4 9 9 5 3 4 7 1 5 6 7 4 3 2 4 5 7 8 6 5 3 6 9 11 13 17 21 22 22 22 23 23 23 22 23 23 22 20 18 16 16 15 14 12 13 13 14 13 13 11 12 12 12 10 9 9 9 8 8 8 8 7 7 7 7 6 6 6 6 5 4 5 3 3 3 2 3 2 2 2 1 2 2 2 1 2 2 1 3 1 3 3 2 2 1 2 2
9 9 9 9 9 8 3 5 6 7 7 4 3 1 1 7 7 8 9 9 4 4 5 10 12 18 19 20 21 22 23 23 23 23 22 22 21 20 19 17 17 16 14 14 13 12 13 14 14 12 12 12 13 10 9 8 9 8 8 8 8 7 7 7 6 6 6 6 5 4 5 4 4 4 4 3 2 3 2 2 1 1 1 1 1 2 1 2 3 3 2 2 1 2 3 1 1
12 8 6 9 9 12 8 9 8 8 6 7 6 4 7 6 10 6 11 10 2 3 6 10 13 17 19 21 21 22 23 23 23 21 21 21 22 21 19 18 16 14 14 16 14 13 13 15 15 14 12 12 11 11 10 9 8 9 8 8 7 7 7 7 7 6 5 6 6 4 4 3 4 3 3 3 3 3 2 1 2 1 2 0 2 0 1 1 1 1 2 1 1 1 2 1 1
13 12 11 8 8 9 8 9 10 9 9 8 8 10 8 8 8 6 10 9 7 4 8 12 16 18 19 20 21 20 20 20 20 20 18 16 18 18 17 14 15 15 16 17 15 15 14 14 16 15 14 14 12 11 10 9 8 8 8 8 8 7 7 6 5 5 6 5 6 5 5 4 4 4 4 4 3 2 2 2 2 2 1 0 1 1 1 1 1 1 1 1 1 1 1 1 1
15 14 9 8 10 9 9 9 10 10 7 6 9 11 9 9 9 12 8 9 10 7 11 14 17 18 19 19 20 20 20 21 20 20 19 17 17 19 18 16 15 16 16 16 16 15 15 15 16 16 15 13 12 12 10 9 8 8 8 8 7 7 7 6 6 6 5 5 5 6 5 4 4 4 4 3 3 3 3 3 2 2 1 1 1 1 1 1 0 1 1 1 2 1 2 1 1
5 12 13 13 12 11 10 12 11 9 9 8 10 10 8 7 8 6 9 10 11 11 13 15 17 18 18 17 18 19 20 21 21 18 17 16 17 18 18 16 16 16 16 16 15 15 15 16 16 14 14 13 12 11 10 9 9 8 8 8 7 7 7 6 6 6 5 6 5 5 5 4 3 3 3 3 3 3 3 2 2 1 2 1 1 1 1 1 1 1 2 2 2 3 5 3 1
6 3 7 11 11 12 12 13 13 8 8 10 11 11 9 7 10 8 4 11 15 14 15 16 15 16 16 18 18 17 17 18 17 18 21 20 16 16 18 15 17 16 16 16 14 13 15 18 16 16 14 13 12 12 10 10 9 9 9 7 8 7 7 7 6 6 6 5 5 6 5 5 5 3 2 3 3 3 3 3 2 2 0 1 0 1 1 1 1 1 1 2 3 2 1 4 3
10 9 11 11 12 13 13 14 12 9 10 9 7 10 11 10 13 14 9 11 15 14 15 16 16 15 16 17 17 16 16 17 17 16 19 16 16 15 18 16 17 16 13 16 15 15 16 16 15 15 15 14 13 13 11 10 9 9 8 8 7 7 7 7 6 6 6 5 6 6 6 6 5 4 4 4 4 3 3 3 3 2 1 1 1 1 1 1 1 1 1 1 2 2 2 1 4
9 10 9 11 11 13 14 13 13 11 8 7 6 8 7 14 15 10 11 13 15 14 15 16 14 15 15 16 15 16 16 18 19 17 17 16 16 17 18 17 17 15 13 13 15 16 13 12 12 13 14 14 14 12 10 9 9 8 8 8 7 8 7 7 7 6 6 6 6 7 7 7 6 4 4 4 4 4 4 4 3 2 2 1 1 2 2 2 1 1 0 1 2 3 2 1 2
11 10 10 10 9 10 8 8 10 11 8 9 8 8 6 8 13 9 11 14 15 15 15 15 15 15 15 16 16 16 18 18 19 19 19 19 16 15 18 17 17 17 13 14 17 17 16 13 11 12 14 15 13 12 12 10 9 9 8 8 8 8 7 8 7 7 7 6 6 7 7 7 7 5 5 4 5 4 4 4 4 3 2 1 2 2 2 1 1 1 0 2 2 3 3 2 2
8 8 12 10 10 9 9 8 9 12 11 11 9 9 9 4 8 8 10 13 14 13 14 15 15 15 16 16 17 16 17 18 19 19 19 19 18 15 17 18 17 17 15 14 15 15 16 14 14 13 15 16 15 13 12 11 10 9 9 8 8 9 8 8 7 7 7 7 7 7 8 7 7 6 6 5 5 5 5 4 3 2 2 3 2 1 2 1 1 1 1 2 2 3 2 2 1
9 11 10 13 12 11 10 12 9 12 9 8 13 8 7 7 2 9 10 12 13 12 13 15 16 17 16 16 15 15 16 17 18 19 20 18 17 15 16 17 17 18 16 15 16 16 16 16 15 15 17 17 16 15 14 12 11 10 10 9 9 9 9 8 8 7 7 7 7 7 8 8 7 7 7 6 5 6 5 4 4 3 3 2 2 3 3 2 2 2 2 2 3 2 2 2 2
11 11 11 10 10 11 11 9 8 7 10 10 12 11 12 7 5 7 10 11 12 11 12 14 15 14 16 15 15 16 17 17 19 19 21 19 16 18 16 16 18 18 16 16 16 16 16 15 15 14 14 16 15 14 13 12 11 10 9 9 9 9 10 8 8 7 7 7 7 7 7 8 7 7 7 6 6 6 5 4 4 2 3 2 3 3 3 2 2 2 2 2 2 2 3 1 2
12 12 12 13 10 9 9 9 9 8 8 12 9 12 12 11 7 8 10 10 11 11 10 13 15 15 15 14 15 17 17 19 19 19 21 20 19 18 16 17 17 17 14 16 16 15 14 14 13 14 13 15 15 14 13 12 12 10 10 10 10 10 9 8 8 8 8 7 7 7 7 7 7 7 7 7 6 6 6 5 5 4 3 3 3 4 4 3 3 2 3 3 2 2 3 2 1
16 13 12 12 12 13 14 11 6 5 7 11 15 12 11 11 8 7 8 10 10 10 9 10 13 14 16 15 15 15 16 18 17 19 20 19 17 18 16 16 16 16 15 15 16 16 15 15 13 13 13 13 13 13 12 12 11 11 11 11 11 10 10 9 9 8 8 8 8 7 7 7 7 7 7 7 6 6 6 5 5 4 4 4 4 5 4 3 4 4 4 3 2 2 2 2 2
9 13 13 14 14 12 11 8 3 4 9 13 14 15 13 10 7 5 8 9 10 10 11 12 13 14 16 16 17 17 17 17 17 19 20 20 20 17 17 15 16 16 16 16 17 17 17 15 15 15 14 13 13 13 13 13 13 12 12 12 12 11 11 10 9 9 9 8 8 7 8 7 7 7 7 7 7 6 6 5 5 5 5 5 4 5 4 4 3 4 3 2 3 3 2 2 2
11 10 13 13 15 13 12 10 8 6 8 10 11 12 13 13 12 12 8 10 11 12 13 14 15 16 15 18 18 18 15 12 16 17 19 20 18 19 17 15 17 18 17 17 18 17 17 17 16 15 13 14 14 14 12 12 12 11 11 11 10 10 10 10 9 8 8 8 8 7 7 7 7 7 7 7 7 7 6 5 5 5 5 5 4 4 4 4 4 4 3 3 2 2 2 3 3
13 12 11 13 14 13 12 7 6 6 7 11 13 15 15 14 13 10 10 11 10 11 13 14 16 16 15 15 17 16 15 16 17 18 20 19 21 20 17 16 17 18 19 18 17 17 17 16 15 15 13 14 14 14 13 12 11 11 11 10 10 9 9 9 8 8 8 8 8 8 8 7 7 7 7 7 7 7 6 6 5 5 5 5 4 5 5 5 5 5 4 3 2 3 1 2 3
13 13 13 14 12 12 11 13 10 10 9 10 11 13 12 12 12 13 11 11 11 12 13 14 14 16 16 16 15 16 17 16 18 19 20 20 20 19 18 17 17 17 17 17 18 19 15 15 15 15 15 15 14 14 14 13 12 12 11 9 10 8 8 8 8 8 8 9 10 9 8 8 8 8 9 8 7 7 7 7 6 5 5 5 5 5 5 5 5 4 4 3 3 3 3 3 3
16 17 15 15 14 13 12 4 6 4 8 11 12 13 15 14 15 14 13 14 13 12 13 13 13 13 14 14 15 16 18 18 17 18 19 20 21 21 19 17 16 17 18 17 17 17 13 17 16 16 15 15 14 14 15 12 12 12 10 9 8 8 7 8 8 8 9 9 9 9 9 9 9 9 9 9 8 8 8 7 6 6 6 6 6 6 5 5 5 4 4 4 4 3 2 2 3
14 20 19 16 13 14 11 11 6 6 9 11 10 10 15 14 17 18 12 9 12 11 12 13 13 13 13 15 15 16 17 17 18 19 20 21 20 18 19 19 19 17 18 18 18 18 16 15 16 16 14 14 14 15 15 13 12 12 11 10 11 10 10 10 11 10 10 10 10 9 10 10 10 9 9 9 9 8 8 8 7 6 6 6 6 6 5 5 5 6 5 4 4 3 3 2 3
14 14 18 19 17 13 13 11 10 11 12 8 11 12 13 11 15 12 8 10 11 11 12 12 13 13 14 13 14 15 17 17 17 18 18 19 20 20 21 20 20 19 18 17 17 17 18 16 17 17 15 13 14 14 17 14 12 12 14 13 12 11 11 10 9 9 9 9 9 10 9 10 10 10 10 10 9 9 8 8 8 7 7 6 6 6 6 6 4 4 4 4 2 2 3 3 2
14 9 11 17 20 18 15 14 12 11 9 10 7 9 12 13 13 11 10 12 11 12 13 13 13 15 15 15 16 16 17 18 17 19 20 20 21 22 23 23 20 20 18 18 17 17 19 18 17 17 14 14 13 13 17 15 12 12 13 13 12 11 12 10 10 9 8 7 8 10 9 8 10 10 10 10 10 10 9 9 8 8 8 7 6 6 6 5 4 3 4 3 3 3 4 4 3
11 9 6 9 14 17 16 13 12 12 11 13 13 15 12 15 14 13 12 13 13 13 13 14 14 15 16 17 17 18 19 19 19 18 21 21 22 23 21 21 21 19 18 18 18 17 17 17 17 17 16 14 14 15 15 16 13 12 12 12 11 11 11 9 8 8 8 8 9 9 9 9 9 9 10 10 10 10 10 9 9 9 9 8 7 7 6 5 6 5 5 4 4 4 5 4 3
15 3 5 7 9 12 14 12 12 12 13 17 15 14 14 16 12 13 15 16 16 14 14 15 16 16 16 16 17 18 17 17 19 21 21 22 22 21 21 20 19 18 18 18 17 16 16 16 17 18 17 14 14 17 16 16 15 12 12 12 14 11 10 9 9 9 9 9 10 10 9 8 9 9 10 11 10 11 11 10 10 10 10 9 8 7 6 6 5 5 6 5 5 5 5 5 5
12 12 8 8 9 9 10 11 10 10 17 18 17 16 15 16 14 14 13 13 13 14 14 13 14 16 17 17 18 16 17 18 17 19 20 21 21 20 20 20 20 19 17 18 18 17 17 17 18 19 18 14 15 16 16 16 15 13 12 13 14 14 13 11 10 10 10 10 10 10 9 9 8 9 9 9 11 11 11 11 10 10 9 8 8 7 7 7 6 6 6 6 6 6 6 6 6
15 9 10 8 9 8 8 9 11 13 17 12 15 16 18 17 15 13 14 13 14 15 15 15 13 16 16 16 15 16 18 18 18 18 19 20 19 19 19 20 20 20 19 19 18 18 17 17 17 19 18 18 16 15 18 16 15 15 14 14 15 14 14 12 13 12 12 12 11 10 9 8 8 9 9 9 10 12 11 10 11 10 9 9 8 8 7 7 6 5 5 5 6 7 7 6 6
14 11 11 11 8 8 10 10 14 16 13 7 12 16 15 23 17 6 9 16 18 15 13 14 14 14 16 17 17 15 16 18 18 18 18 18 19 20 22 21 20 20 19 21 20 19 19 18 20 20 20 19 17 17 19 18 18 16 15 16 15 13 14 14 13 13 12 11 10 10 10 9 9 9 10 10 10 12 10 10 10 9 8 8 8 7 7 7 6 6 5 7 7 8 8 8 7
16 15 13 13 12 12 11 12 9 9 12 13 6 11 16 14 11 18 21 14 11 13 13 13 13 14 14 16 16 16 16 17 17 18 18 18 19 20 21 21 21 20 22 22 21 19 18 17 20 21 21 20 18 18 19 19 19 17 16 16 14 14 14 14 13 13 12 11 10 11 11 11 10 11 11 11 10 11 11 10 10 10 9 8 8 9 8 8 7 7 7 7 8 7 8 9 8
15 14 14 13 11 9 10 9 13 12 8 11 13 6 9 9 4 8 15 16 15 13 13 13 14 13 12 15 16 17 17 17 17 18 19 20 21 22 21 21 21 21 22 22 20 19 18 18 19 21 20 20 20 20 19 19 17 18 17 16 15 15 13 13 12 11 12 12 11 12 11 11 11 10 11 10 11 11 11 10 11 11 10 9 9 8 8 9 8 8 7 8 8 8 8 8 8
15 14 12 14 15 7 9 4 10 9 10 10 14 12 3 8 3 3 1 11 16 16 16 16 16 15 15 14 15 15 16 17 18 19 20 21 21 21 20 20 21 21 23 21 22 20 20 19 20 22 22 22 22 21 19 19 18 16 18 18 18 16 12 12 11 11 11 12 12 11 11 11 10 9 9 10 11 11 11 11 11 11 11 10 9 9 10 9 9 9 8 8 9 7 9 10 8
14 14 18 16 12 12 10 5 6 7 5 11 7 11 13 9 9 8 6 7 9 11 13 14 14 14 14 13 14 16 16 17 17 18 18 21 21 21 21 21 21 21 21 22 22 22 22 20 20 21 21 20 22 22 21 19 18 18 19 19 18 17 17 16 14 15 15 12 12 11 11 12 11 10 10 10 11 11 11 12 11 11 11 11 10 10 10 10 9 9 9 9 9 9 9 10 9
10 16 15 12 12 12 10 10 7 10 12 10 12 15 10 10 9 12 19 16 14 14 14 14 13 13 13 13 13 14 16 17 19 20 19 20 21 22 21 20 21 22 23 23 23 23 21 20 21 21 21 22 22 21 21 19 20 20 18 19 19 18 16 16 15 14 13 12 12 11 11 11 13 12 10 9 11 12 12 12 11 11 11 11 11 11 11 11 10 10 10 10 9 9 10 9 9
13 12 12 14 14 14 10 7 13 11 13 10 12 13 12 11 9 4 10 16 16 15 14 15 15 14 15 15 16 16 16 15 16 17 16 17 19 21 22 23 25 25 23 23 23 22 21 21 21 22 23 24 23 20 20 18 20 16 16 18 19 18 17 16 15 14 13 13 14 13 13 13 12 12 11 11 11 12 11 12 11 11 11 11 12 11 11 11 11 11 11 10 10 10 10 10 9
19 11 13 14 8 10 12 12 7 8 10 9 11 13 11 9 10 11 6 9 12 14 14 15 15 16 15 14 15 16 15 15 15 16 17 19 21 23 24 23 23 23 22 22 23 21 24 23 22 22 21 20 20 20 19 20 20 19 18 17 18 18 17 16 16 14 13 15 15 14 14 14 13 12 12 13 12 12 12 13 12 13 13 12 12 12 12 11 11 11 11 10 10 11 12 11 10
18 16 14 13 11 5 9 10 13 10 9 10 7 8 6 5 7 12 14 10 9 9 11 11 12 14 15 15 14 14 15 15 15 16 17 19 20 21 22 21 20 20 18 18 19 22 22 21 21 23 23 23 23 22 21 20 18 19 19 20 20 19 19 17 17 16 15 15 14 14 14 13 12 13 12 13 13 13 13 13 13 12 13 12 12 12 11 11 11 12 11 10 10 11 13 11 10
17 15 15 15 15 12 12 12 11 13 10 6 7 8 1 4 1 5 8 11 12 11 10 10 11 12 11 10 12 11 12 14 15 16 16 16 17 17 18 18 17 18 20 22 21 20 22 22 21 22 22 22 23 22 20 19 19 18 21 21 21 19 19 17 18 16 16 15 15 14 14 13 14 13 13 14 14 13 13 14 14 13 13 13 13 12 13 12 12 12 12 9 10 12 13 12 10
Wind_Direction
171 176 163 156 143 162 167 203 262 173 243 248 79 57 53 57 53 143 81 149 140 71 98 134 129 143 157 128 94 68 35 69 16 321 103 115 138 139 146 136 134 137 135 134 133 138 140 146 141 140 137 132 133 128 123 122 122 122 119 118 118 118 118 117 115 115 112 103 101 103 102 99 98 95 93 89 86 82 79 76 73 72 69 68 69 71 74 76 74 72 72 74 76 82 85 89 91
167 167 166 151 163 171 208 227 267 234 188 302 61 61 68 104 174 45 96 46 61 123 126 126 135 112 61 120 122 100 59 45 57 87 99 122 131 135 136 139 140 137 136 134 140 143 144 138 142 139 137 137 136 129 125 123 123 122 119 118 120 122 121 117 117 113 104 101 103 104 102 100 98 96 94 91 85 80 76 73 71 68 66 64 61 61 63 70 74 75 76 79 80 81 88 88 85
170 170 160 159 160 226 298 213 261 0 161 149 65 54 147 80 60 81 71 90 106 122 129 120 116 133 128 140 136 38 89 85 97 108 114 133 134 137 142 142 138 136 135 136 140 142 143 137 145 138 138 139 138 132 126 126 125 120 118 122 123 124 121 118 113 107 104 106 106 104 102 101 99 97 93 88 83 78 75 71 68 67 65 61 60 59 61 64 70 76 78 79 81 80 81 89 92
168 181 168 170 201 206 234 220 263 340 328 53 90 68 55 61 72 77 92 105 117 130 129 136 144 25 202 138 94 112 102 102 103 124 130 150 136 140 142 143 141 141 137 139 141 139 142 140 147 141 140 139 137 132 129 128 124 120 121 125 126 124 119 115 111 108 109 109 108 105 104 101 97 92 89 85 80 77 73 73 71 68 63 63 63 63 61 64 74 77 79 80 78 77 78 86 94
171 178 200 202 279 232 277 291 292 194 16 20 71 84 73 74 89 98 105 123 135 137 154 125 112 101 51 77 71 92 86 105 116 130 137 136 133 141 143 142 146 142 139 140 138 136 135 144 146 142 140 140 138 133 132 127 123 121 126 128 126 122 118 114 113 112 113 111 110 109 106 100 94 91 86 82 79 75 72 69 70 70 70 69 69 67 65 65 66 74 77 79 80 80 79 86 92
174 171 186 207 233 343 306 250 198 21 50 356 56 66 73 80 97 104 119 132 132 148 128 161 127 154 131 61 25 102 122 142 128 132 142 134 141 142 141 149 145 144 139 139 133 132 142 148 151 144 143 141 139 135 133 127 123 124 127 128 125 121 119 117 116 116 116 114 113 111 104 99 94 90 85 79 75 72 69 69 69 69 65 66 65 65 68 69 72 75 76 78 81 83 79 80 88
173 171 174 220 264 235 253 285 47 20 74 337 46 86 86 97 100 125 122 129 145 131 163 137 123 134 135 115 86 66 43 109 143 138 143 139 141 143 146 149 148 144 142 140 135 132 133 146 149 145 144 140 139 136 132 127 125 127 130 129 126 124 121 120 120 121 119 118 117 111 105 99 95 90 84 78 72 70 68 65 64 63 64 65 66 68 70 71 72 72 75 77 79 80 82 76 76
218 226 178 261 228 211 245 34 39 335 87 340 50 62 110 103 129 125 133 148 138 164 159 135 159 106 72 160 100 84 119 149 116 137 132 144 143 145 152 146 148 145 143 137 137 128 125 147 148 147 145 141 139 137 131 128 127 130 132 130 130 127 126 125 126 126 124 123 120 114 108 101 96 92 87 79 74 68 66 65 62 61 61 64 66 67 68 73 73 72 71 75 77 78 79 80 74
199 248 264 242 253 208 265 8 72 49 89 138 117 39 76 122 139 133 132 101 141 147 166 163 154 181 126 116 86 117 114 108 125 129 140 143 148 150 151 150 149 146 144 142 136 134 141 137 148 147 145 142 140 136 133 128 131 134 135 134 132 131 130 130 130 130 128 128 124 119 112 105 98 93 88 79 70 67 66 66 63 60 61 66 67 68 75 73 71 71 71 71 74 77 78 78 76
220 250 235 284 317 264 237 104 169 81 81 90 79 133 157 141 140 168 118 141 132 149 146 160 165 76 130 103 122 139 127 131 134 139 145 148 149 153 151 152 149 148 147 143 140 143 141 144 151 146 143 140 138 136 132 131 135 138 138 137 136 135 135 135 134 134 133 132 128 122 114 108 102 96 88 78 70 65 64 66 67 65 66 69 69 70 73 73 71 69 70 75 77 78 78 79 78
230 198 282 271 229 263 56 95 91 143 123 127 136 131 159 153 153 133 146 105 140 143 136 151 167 134 133 111 87 91 135 139 145 148 150 149 152 154 152 150 151 152 149 146 146 142 144 148 151 147 144 140 137 136 133 137 140 141 142 141 140 140 139 138 139 137 138 134 131 125 117 113 108 101 92 81 76 69 67 67 67 70 69 73 76 73 71 71 71 71 71 72 74 78 78 80 76
249 247 195 275 293 334 61 34 91 97 125 135 129 150 153 153 160 141 132 146 153 141 157 187 134 153 131 135 128 133 147 150 150 150 152 152 154 155 152 152 153 155 150 147 142 145 149 145 152 148 146 142 139 138 140 143 145 146 146 144 144 143 143 144 141 142 140 137 133 126 121 116 113 107 96 90 79 74 70 69 71 71 70 69 71 70 68 69 70 71 76 73 71 72 78 80 77
248 280 255 265 297 261 33 239 81 38 129 134 122 144 147 162 166 130 130 118 158 159 153 191 114 178 142 125 116 141 156 152 149 151 152 156 156 155 156 153 156 154 151 149 148 147 148 152 151 156 148 144 143 145 146 148 150 150 149 148 147 147 147 146 144 144 141 139 134 131 125 121 118 112 103 92 83 73 69 66 71 73 71 71 72 70 69 72 74 76 75 74 72 72 72 74 76
235 284 297 281 307 259 258 40 77 177 97 90 117 142 157 172 166 123 138 140 147 164 122 129 157 154 102 109 145 153 155 152 152 153 153 158 157 157 157 153 159 154 155 153 151 150 153 157 154 157 150 154 149 150 151 153 154 154 151 152 151 151 150 147 147 145 144 139 139 135 133 130 125 121 112 98 91 81 71 68 71 71 71 70 69 72 74 73 77 75 74 75 73 71 72 71 73
240 260 272 280 280 264 134 206 79 64 90 117 108 156 157 154 146 148 151 131 104 85 111 151 136 180 157 166 159 162 158 153 153 155 156 157 159 156 155 156 156 160 161 158 156 156 159 158 159 156 158 159 156 159 159 155 157 156 155 154 155 154 152 150 148 148 146 147 144 145 141 138 132 128 123 107 99 94 104 109 64 71 72 74 74 76 78 78 76 79 77 74 79 81 81 83 80
246 266 268 273 265 283 116 204 164 173 86 331 124 148 167 132 154 170 127 21 110 131 157 140 184 353 125 181 152 152 154 152 153 155 156 158 158 159 157 159 157 165 168 160 157 160 159 159 167 163 162 163 165 163 160 158 158 158 158 158 160 158 156 153 152 153 153 152 152 151 154 156 158 148 143 130 108 99 60 43 72 72 73 76 78 79 83 81 75 67 66 77 83 84 92 99 92
240 259 246 231 254 221 97 225 204 78 38 59 130 166 177 154 154 104 104 135 153 151 175 118 169 92 168 105 140 143 151 151 154 156 157 158 158 163 163 164 161 168 171 176 159 161 172 161 175 163 168 166 168 165 161 162 157 162 162 163 165 164 160 160 159 159 162 159 163 162 175 200 154 143 172 135 142 102 84 78 69 76 74 79 88 89 87 88 82 78 73 67 72 83 111 118 113
214 221 245 245 288 264 64 28 38 38 358 33 186 191 184 161 163 141 171 168 156 155 159 136 122 87 103 119 137 145 149 155 159 159 160 160 168 165 168 169 168 171 176 176 175 164 181 168 163 166 170 168 170 165 163 167 159 174 171 167 173 169 169 169 172 179 176 164 178 168 194 169 166 151 129 140 127 132 112 82 89 81 73 73 80 92 83 81 82 78 80 93 79 123 221 195 137
213 219 238 269 195 58 11 46 23 350 14 332 267 204 217 180 184 158 189 172 157 168 159 155 139 115 113 133 139 150 154 159 163 166 165 166 172 169 169 170 175 171 178 176 176 178 174 170 161 184 172 170 170 168 165 169 166 177 174 175 171 178 171 184 181 185 182 176 180 185 183 175 156 142 118 63 48 77 102 98 97 101 105 94 116 116 111 86 80 90 89 93 149 242 238 66 88
220 250 234 237 7 3 265 315 358 350 354 356 22 191 216 155 191 154 219 162 173 186 165 170 158 142 142 142 150 152 161 163 168 170 170 170 173 172 171 172 174 177 179 178 176 177 178 177 174 178 170 171 172 173 171 171 172 178 181 179 177 179 179 186 189 187 186 185 182 188 193 141 166 155 114 155 205 182 141 160 151 164 170 162 203 189 142 123 115 136 95 61 21 324 17 37 69
186 229 239 252 344 248 203 180 3 359 359 354 48 129 213 168 197 188 198 184 200 208 186 180 172 155 148 153 156 156 164 168 173 175 174 175 176 176 176 175 177 177 179 176 175 179 179 181 178 175 172 173 178 175 178 178 175 183 183 182 181 182 184 185 187 191 185 192 184 192 196 162 184 175 164 172 205 145 144 163 179 167 153 131 202 125 173 129 185 148 185 154 205 307 9 32 44
217 229 243 263 227 233 126 344 342 349 347 341 52 219 216 159 209 216 208 219 176 199 188 184 168 158 154 159 161 163 168 172 176 177 177 177 179 177 175 176 177 177 181 179 179 177 180 182 178 174 174 179 180 181 182 177 176 187 184 182 182 185 185 188 185 190 183 192 192 196 190 168 198 178 166 182 167 177 193 154 163 136 154 139 212 113 75 33 76 17 58 35 37 88 41 18 32
241 221 235 237 251 269 282 300 303 315 325 317 335 8 251 198 219 211 214 221 53 44 138 173 166 161 157 157 162 169 172 175 179 181 177 178 179 180 176 176 177 178 179 184 180 180 179 182 179 177 177 178 183 184 182 180 186 185 186 183 184 186 185 187 192 188 184 183 199 192 199 183 189 181 170 170 191 197 177 185 144 147 142 146 130 84 54 45 6 64 98 52 345 39 79 111 18
235 251 207 225 236 249 259 269 281 287 290 292 304 302 250 222 244 206 219 219 279 126 138 157 152 155 156 162 171 174 174 178 181 182 179 181 178 179 177 175 179 176 178 183 181 180 181 183 180 181 179 178 182 184 186 183 185 186 187 178 194 180 189 189 192 188 175 185 196 189 230 191 192 187 171 179 189 187 186 160 148 208 158 156 101 155 126 65 76 72 52 15 42 18 46 70 49
221 239 245 249 247 253 258 263 268 271 268 265 272 267 249 238 257 236 226 208 206 147 150 144 147 157 164 167 173 176 176 180 181 181 180 182 180 181 177 175 178 176 180 181 181 180 182 184 182 184 181 180 185 182 187 186 185 191 184 183 192 177 200 197 190 180 188 190 182 197 206 207 197 198 178 190 177 183 162 183 190 163 127 151 200 82 50 354 19 8 35 320 54 347 332 41 66
221 238 243 248 250 255 258 264 260 260 261 253 264 259 254 245 241 251 242 201 197 163 149 148 153 161 169 172 173 176 178 181 181 182 183 180 181 181 181 179 179 180 180 181 181 182 181 181 185 185 183 182 186 187 188 187 186 192 188 188 187 182 201 199 186 195 193 187 184 193 198 219 207 201 177 191 189 182 186 182 191 196 180 148 244 51 40 262 41 4 24 337 355 317 325 39 313
186 223 240 255 262 265 256 257 258 258 257 255 254 263 260 234 222 231 215 209 173 164 157 155 160 167 171 173 177 178 180 182 183 180 181 182 182 185 183 181 183 180 176 181 183 182 180 183 183 187 186 184 187 192 189 189 189 191 190 189 188 193 191 195 197 203 192 192 185 178 193 208 228 217 178 190 189 190 194 198 210 182 208 192 108 220 124 9 346 4 4 340 358 19 339 332 4
211 227 247 251 256 252 255 255 256 256 256 247 246 255 257 239 207 240 225 175 168 177 166 162 169 171 173 174 178 179 183 183 181 182 183 183 184 186 184 184 183 180 179 181 180 182 181 186 184 184 187 184 190 192 190 194 193 192 193 194 193 196 189 198 197 202 196 196 181 179 193 196 216 212 195 194 204 191 206 192 200 210 245 296 352 351 356 40 333 36 14 5 329 42 305 323 308
244 250 258 255 253 253 237 240 241 229 248 244 242 256 238 213 212 211 214 165 174 185 174 171 172 172 175 175 176 180 184 181 182 187 188 185 184 187 187 187 183 182 181 181 177 179 180 185 183 187 187 186 192 195 191 194 193 194 194 195 194 193 194 200 202 200 199 190 189 193 186 198 205 208 189 212 204 206 210 212 221 195 210 232 240 70 249 232 195 208 129 302 334 337 271 355 274
235 236 258 267 256 251 237 228 229 217 228 244 208 245 216 205 212 211 188 176 185 189 182 177 176 174 175 177 179 179 183 183 186 188 186 186 187 188 189 187 187 185 179 179 180 181 178 181 183 185 188 188 193 196 190 192 195 195 196 196 193 197 197 200 204 202 200 196 191 190 197 199 203 205 198 200 220 211 211 211 231 213 197 209 247 226 228 180 207 356 4 305 320 283 285 256 322
224 231 233 246 249 238 194 211 197 220 189 198 206 250 249 177 191 201 180 180 187 193 187 184 180 177 175 179 179 181 184 188 188 187 187 188 188 189 190 190 188 188 183 182 183 180 181 179 180 186 186 188 190 197 192 193 193 197 195 198 194 197 199 204 204 199 200 199 197 185 201 196 203 202 204 208 215 228 220 215 210 214 184 236 239 183 265 136 203 224 37 294 296 299 319 326 317
219 220 218 221 237 227 155 177 174 226 161 202 200 239 244 238 156 180 171 185 192 200 194 188 185 182 179 179 181 181 185 187 192 190 189 187 187 189 190 190 188 190 186 183 181 182 183 182 183 187 183 191 189 195 192 194 194 198 196 198 198 196 203 205 205 204 198 197 199 190 192 199 199 203 205 208 225 222 224 223 212 196 179 231 234 189 235 230 142 251 210 245 262 286 302 307 319
209 226 228 220 214 229 210 173 208 220 234 188 221 236 231 192 118 159 177 188 193 204 201 194 189 186 182 183 183 182 181 185 192 193 191 189 188 189 189 190 188 189 185 182 181 182 183 182 183 189 183 189 189 192 193 193 195 195 200 198 203 198 208 206 206 207 201 199 199 199 184 196 198 200 205 208 222 229 228 227 218 200 203 229 217 212 230 241 228 199 204 264 290 283 278 289 315
208 207 234 239 217 206 226 126 202 179 222 215 201 235 239 252 168 179 179 193 195 208 207 199 194 189 187 186 186 182 182 184 190 193 191 190 187 189 189 189 187 189 185 183 181 182 183 182 182 190 181 186 188 189 193 193 195 197 200 203 204 206 209 213 205 207 209 203 201 203 183 191 195 199 203 206 218 230 234 234 234 193 211 220 224 232 238 239 211 252 200 228 264 285 279 326 280
205 199 217 224 230 245 240 209 151 220 187 244 220 224 234 239 239 187 186 195 200 212 216 201 198 193 188 190 192 187 184 187 191 191 190 189 188 188 189 187 188 187 187 185 182 181 183 183 182 187 186 185 185 189 189 196 195 198 201 207 203 209 212 216 214 209 209 208 206 195 188 194 193 197 200 204 214 223 226 227 233 216 223 222 232 239 228 220 242 221 230 219 223 258 299 301 308
220 213 218 226 221 212 225 232 153 221 238 235 235 242 236 230 240 177 190 191 204 213 217 210 202 198 192 191 194 194 191 190 188 188 189 188 188 186 188 186 188 187 189 184 184 183 185 185 184 183 188 185 183 188 189 195 197 198 202 203 208 208 213 213 216 218 213 211 204 195 191 198 195 197 200 205 212 222 229 225 227 221 222 228 231 241 234 220 205 216 221 232 224 232 229 256 234
252 225 222 228 229 233 225 221 136 210 257 250 251 249 254 261 254 231 199 195 202 210 214 209 203 200 198 197 194 195 194 191 183 186 188 188 188 185 186 184 187 187 189 186 186 187 187 188 186 187 187 185 186 188 192 197 199 200 203 206 206 205 209 211 212 216 215 211 202 199 193 199 195 198 202 206 212 214 222 227 223 223 225 223 231 238 236 245 215 216 222 207 232 221 216 208 205
233 228 224 229 230 235 225 226 181 211 244 253 255 264 260 253 255 255 231 200 205 206 213 212 207 203 203 203 199 194 190 187 181 182 188 187 189 186 185 185 186 187 188 189 190 190 189 191 192 190 186 189 191 190 190 195 198 199 197 202 202 201 199 204 207 210 212 206 195 198 197 202 197 199 202 208 213 210 212 220 222 222 220 228 228 238 241 218 216 220 218 226 221 251 229 219 159
226 235 228 235 232 235 237 223 180 218 240 253 257 261 260 262 260 253 243 213 208 213 217 215 208 207 206 206 203 193 184 186 185 185 185 188 188 187 186 186 187 189 186 189 190 191 191 193 194 192 191 190 193 193 192 194 194 197 197 194 201 199 198 200 206 205 204 206 193 194 200 200 199 201 203 204 208 211 216 220 223 221 222 223 217 225 225 218 222 221 220 241 233 225 228 143 159
227 225 232 231 230 228 216 210 213 224 232 256 257 267 270 267 261 254 244 224 207 211 216 218 212 211 208 206 201 196 192 184 187 186 187 187 187 187 186 187 186 188 187 189 189 192 192 194 193 193 194 194 193 194 195 193 191 190 194 194 197 211 196 194 204 202 200 205 202 194 198 199 198 205 203 205 206 211 213 218 223 228 213 213 215 220 221 229 226 224 225 233 242 259 195 161 177
225 234 233 234 232 229 245 152 186 178 229 247 265 268 266 255 253 248 233 220 212 208 210 216 218 215 214 213 206 199 194 188 188 187 188 188 189 190 188 186 185 188 190 189 189 189 194 193 192 192 194 194 193 192 191 189 187 187 186 192 195 203 208 202 199 202 199 199 206 199 199 196 198 206 206 205 210 209 213 216 222 223 219 210 219 221 225 232 223 227 227 225 228 268 276 158 183
225 227 233 238 238 243 226 244 216 226 232 204 231 257 252 246 245 249 245 184 206 201 204 209 210 212 208 211 207 201 201 194 190 189 190 190 190 187 188 188 189 189 191 191 190 190 192 192 193 193 195 195 196 192 188 186 187 182 181 185 192 197 203 202 205 201 198 198 208 204 197 198 199 204 205 206 209 211 211 216 217 221 219 216 219 227 227 223 218 227 223 224 213 230 289 231 190
228 222 219 233 241 239 242 227 230 242 246 226 215 245 256 246 245 233 206 200 203 186 203 205 202 207 206 206 206 203 200 195 195 193 191 191 190 189 190 191 193 192 192 189 190 191 191 192 193 193 194 195 195 193 191 194 187 189 190 194 199 199 202 206 206 205 206 202 204 203 197 196 199 203 204 205 209 212 216 217 216 218 222 220 221 228 231 230 219 218 229 216 219 206 209 229 226
231 225 219 218 224 231 230 235 242 259 262 261 201 232 262 259 243 236 195 212 201 190 194 203 201 204 204 203 205 204 202 199 194 193 192 194 191 192 192 193 194 194 188 187 190 190 190 191 190 191 192 193 192 192 193 195 192 192 195 200 202 207 208 205 199 204 205 204 200 202 197 198 195 201 206 203 209 211 215 218 219 223 228 228 226 231 239 237 231 218 215 212 206 196 204 222 213
225 213 225 230 220 223 230 237 246 248 251 244 226 223 247 250 249 244 241 230 211 209 204 199 206 204 204 205 206 204 204 200 197 194 193 194 195 197 194 192 195 192 189 189 189 188 188 189 190 190 192 191 190 189 188 196 198 195 198 200 205 208 210 209 199 198 200 198 200 197 200 200 195 197 204 207 206 211 212 218 220 226 229 228 229 233 234 228 227 222 209 206 199 188 205 210 207
222 203 203 223 214 222 229 236 239 243 241 244 233 225 246 253 243 238 222 231 230 225 222 216 205 206 204 207 208 207 203 203 202 200 196 195 196 196 196 193 190 194 192 189 188 186 186 187 190 190 192 191 190 192 194 193 196 198 201 204 205 204 204 205 204 196 196 192 198 198 200 203 204 200 200 205 206 209 214 215 221 225 228 229 227 234 232 229 222 217 215 212 204 199 204 204 199
218 194 204 199 212 217 221 231 238 243 245 240 234 232 239 262 240 235 225 215 223 231 230 227 214 206 204 207 207 205 202 202 203 204 201 197 196 194 191 193 193 193 193 188 188 187 187 188 188 190 191 190 192 192 195 198 198 201 203 205 208 205 199 198 199 199 195 194 198 201 201 203 208 211 209 201 207 208 214 218 223 224 227 225 225 228 230 226 218 215 214 206 200 207 202 201 200
217 191 212 217 211 218 217 218 215 235 243 234 227 229 228 250 245 232 238 237 216 224 234 224 210 204 201 203 206 206 202 201 201 202 202 198 193 192 191 193 192 192 193 192 191 187 187 188 188 191 192 193 194 195 202 203 204 207 207 208 210 207 199 198 201 201 197 199 199 202 202 204 206 210 214 212 208 211 212 216 220 224 223 224 221 223 227 225 227 208 208 200 203 207 207 200 200
207 203 205 209 189 184 206 198 213 222 239 225 222 218 229 234 245 258 229 225 223 221 229 228 219 212 202 198 201 203 202 200 199 200 200 197 193 190 192 192 190 190 192 193 193 190 187 187 188 191 192 191 192 195 202 202 206 208 206 209 211 207 206 202 201 204 201 201 201 201 199 203 203 206 208 213 209 208 207 208 211 216 217 217 222 220 222 224 228 219 201 206 210 205 205 197 195
199 203 198 202 195 195 208 208 227 241 225 230 222 217 243 258 261 228 238 231 235 222 221 227 229 229 205 197 198 200 201 200 199 198 200 197 194 193 192 190 190 190 193 192 193 192 188 188 188 190 191 190 190 194 198 200 203 206 208 211 210 212 211 204 204 206 205 204 201 202 203 204 203 207 207 210 210 206 208 205 205 210 211 210 212 217 219 216 217 220 208 212 213 210 206 197 199
200 204 206 208 214 201 204 210 213 223 235 197 193 206 233 225 216 230 221 222 219 218 227 230 227 226 215 200 196 199 198 199 198 199 199 198 196 194 191 191 190 191 192 192 192 193 189 189 188 189 189 190 190 192 194 196 199 205 210 211 211 214 211 207 206 207 206 206 204 203 204 207 209 209 210 208 206 205 205 202 201 202 202 204 206 212 215 213 210 216 218 214 221 208 206 199 198
198 201 212 216 216 215 234 221 235 226 215 214 192 211 184 212 93 96 199 206 212 220 224 225 219 218 214 200 196 196 199 199 198 199 200 200 197 194 193 191 192 191 190 191 191 191 192 191 188 188 188 186 188 190 193 194 197 202 207 211 213 213 213 213 207 205 206 205 203 203 203 206 211 210 207 206 202 202 200 201 199 202 200 199 200 206 215 214 205 211 214 209 215 210 206 200 201
183 197 209 211 204 218 236 252 296 327 270 233 198 223 243 279 265 239 198 184 195 199 209 212 213 210 210 203 198 198 200 200 198 200 200 199 197 196 196 192 192 191 191 192 190 190 192 189 188 188 188 186 187 190 193 194 197 200 205 207 210 212 213 213 209 204 204 202 203 204 206 206 207 208 205 202 202 199 200 201 203 205 201 200 199 201 210 216 205 210 214 213 216 213 206 202 202
168 205 206 199 215 231 226 244 198 222 236 233 213 228 224 215 260 209 211 214 208 206 206 208 206 207 205 204 203 199 200 199 199 201 199 196 196 197 197 197 195 195 193 192 190 188 189 190 190 188 187 189 190 190 192 192 194 198 200 203 206 209 212 214 214 206 201 201 202 205 207 207 208 207 206 203 201 199 200 201 205 207 205 202 202 201 202 207 207 215 216 214 215 216 211 203 201
221 206 177 195 183 206 211 235 227 213 224 239 229 233 241 228 218 130 200 213 213 211 209 213 211 208 206 203 204 205 205 203 202 202 197 196 198 198 197 198 196 194 194 193 191 188 187 190 191 190 191 192 190 190 190 191 194 195 198 200 202 207 211 212 212 206 198 201 204 202 206 207 207 205 204 204 201 202 200 201 205 207 206 204 201 201 196 198 202 217 217 214 214 214 214 207 199
224 216 204 205 211 210 196 207 240 233 242 233 232 221 240 219 238 231 210 202 214 210 208 212 215 207 207 206 204 200 202 204 203 202 199 199 200 199 199 200 200 198 195 193 192 191 192 191 189 192 193 192 190 191 190 192 194 197 198 198 199 202 206 209 210 204 201 203 205 204 204 206 206 204 204 202 203 204 202 203 204 208 209 205 201 201 198 196 198 212 215 208 209 211 214 210 203
194 205 209 190 219 205 225 202 219 221 236 241 249 233 230 233 210 220 221 209 200 202 207 211 221 223 215 214 211 200 198 201 204 203 201 202 202 202 200 200 202 200 196 196 194 196 197 194 193 193 190 190 192 193 192 195 194 196 195 195 197 198 201 203 206 203 204 204 204 206 207 208 202 206 203 202 203 204 203 205 208 208 210 207 204 201 199 197 197 205 210 202 207 209 213 213 205
197 198 206 195 194 196 198 212 204 231 234 236 240 245 267 88 228 195 225 219 229 224 221 212 214 218 225 224 213 208 201 204 207 206 206 205 204 202 201 199 200 200 198 196 196 196 196 195 196 195 194 193 194 194 194 193 195 196 197 198 197 196 198 202 205 203 204 203 204 204 205 204 205 203 203 203 203 204 204 205 208 208 208 209 205 202 198 196 197 198 200 195 202 205 213 214 204